FW4559 Weather Reports


Display with metric or nautical units.
time (UTC)temp
F
wind
direction
speed
MPH
gust
MPH
rain 1hr
in
rain 24hr
in
rain mn
in
humidity
%
barometer
mb
20260504004619 50 164 1.0 4.0 0.00 0.00 0.00 42 1017.5
20260504004049 51 151 1.0 6.0 0.00 0.00 0.00 40 1017.4
20260504003549 52 248 1.0 5.0 0.00 0.00 0.00 37 1017.3
20260504003053 52 212 0.0 4.0 0.00 0.00 0.00 37 1017.3
20260504002549 52 252 2.0 6.0 0.00 0.00 0.00 37 1017.3
20260504002049 52 236 1.0 6.0 0.00 0.00 0.00 37 1017.2
20260504001618 53 288 2.0 7.0 0.00 0.00 0.00 36 1017.2
20260504001050 53 245 2.0 7.0 0.00 0.00 0.00 35 1017.1
20260504000549 54 235 2.0 6.0 0.00 0.00 0.00 35 1017.2
20260504000053 54 218 1.0 6.0 0.00 0.00 0.00 34 1017.1
20260503235548 55 334 1.0 6.0 0.00 0.00 0.00 33 1017.1
20260503235049 55 283 1.0 7.0 0.00 0.00 0.00 32 1017.0
20260503234548 55 295 3.0 7.0 0.00 0.00 0.00 32 1017.0
20260503234047 56 290 1.0 10.0 0.00 0.00 0.00 32 1017.0
20260503233546 56 261 1.0 9.0 0.00 0.00 0.00 32 1017.0
20260503233047 56 232 3.0 10.0 0.00 0.00 0.00 31 1017.0
20260503232547 56 258 2.0 10.0 0.00 0.00 0.00 31 1016.9
20260503232046 56 300 1.0 11.0 0.00 0.00 0.00 31 1016.9
20260503231546 56 278 1.0 11.0 0.00 0.00 0.00 30 1016.9
20260503231047 56 350 2.0 11.0 0.00 0.00 0.00 30 1016.8
20260503230546 56 1 2.0 11.0 0.00 0.00 0.00 29 1017.0
20260503230107 57 252 5.0 11.0 0.00 0.00 0.00 29 1016.9
20260503225545 57 314 5.0 11.0 0.00 0.00 0.00 28 1017.0
20260503225045 57 25 3.0 8.0 0.00 0.00 0.00 27 1017.0
20260503224545 57 303 4.0 13.0 0.00 0.00 0.00 28 1017.0
20260503224045 57 330 4.0 13.0 0.00 0.00 0.00 28 1017.1
20260503223544 58 328 5.0 10.0 0.00 0.00 0.00 27 1017.0
20260503223046 58 308 2.0 10.0 0.00 0.00 0.00 27 1017.2
20260503222544 58 226 3.0 10.0 0.00 0.00 0.00 26 1017.1
20260503222044 57 19 3.0 14.0 0.00 0.00 0.00 26 1017.1
20260503221544 58 121 7.0 14.0 0.00 0.00 0.00 26 1017.3
20260503221044 58 284 4.0 14.0 0.00 0.00 0.00 25 1017.3
20260503220544 58 356 4.0 14.0 0.00 0.00 0.00 25 1017.2
20260503220048 58 19 7.0 14.0 0.00 0.00 0.00 25 1017.2
20260503215543 59 304 3.0 11.0 0.00 0.00 0.00 25 1017.2
20260503215042 58 247 3.0 13.0 0.00 0.00 0.00 24 1017.2
20260503214544 58 1 7.0 14.0 0.00 0.00 0.00 23 1017.3
20260503214043 58 4 3.0 14.0 0.00 0.00 0.00 24 1017.3
20260503213544 58 148 5.0 12.0 0.00 0.00 0.00 24 1017.3
20260503213044 58 104 4.0 14.0 0.00 0.00 0.00 24 1017.4
20260503212543 58 233 4.0 14.0 0.00 0.00 0.00 24 1017.4
20260503212042 58 65 2.0 14.0 0.00 0.00 0.00 24 1017.5
20260503211542 58 307 4.0 16.0 0.00 0.00 0.00 24 1017.5
20260503211041 59 300 7.0 16.0 0.00 0.00 0.00 23 1017.5
20260503210541 59 54 4.0 12.0 0.00 0.00 0.00 22 1017.6
20260503210041 59 132 4.0 13.0 0.00 0.00 0.00 22 1017.7
20260503205542 59 260 4.0 13.0 0.00 0.00 0.00 23 1017.8
20260503205041 58 219 3.0 12.0 0.00 0.00 0.00 23 1017.8
20260503204540 58 335 2.0 10.0 0.00 0.00 0.00 24 1017.9
20260503204040 59 248 5.0 11.0 0.00 0.00 0.00 22 1017.9
20260503203539 58 257 6.0 11.0 0.00 0.00 0.00 20 1018.1
20260503203057 59 286 5.0 11.0 0.00 0.00 0.00 22 1018.0
20260503202539 60 316 2.0 11.0 0.00 0.00 0.00 25 1018.0
20260503202041 59 281 3.0 11.0 0.00 0.00 0.00 25 1018.0
20260503201539 60 258 2.0 13.0 0.00 0.00 0.00 24 1018.1
20260503201038 60 286 4.0 13.0 0.00 0.00 0.00 26 1018.1
20260503200542 60 243 3.0 15.0 0.00 0.00 0.00 28 1018.0
20260503200038 59 273 7.0 15.0 0.00 0.00 0.00 25 1018.0
20260503195537 60 298 3.0 10.0 0.00 0.00 0.00 27 1018.2
20260503195038 60 108 0.0 6.0 0.00 0.00 0.00 28 1018.1
20260503194543 60 129 2.0 6.0 0.00 0.00 0.00 26 1018.2
20260503194038 60 224 3.0 10.0 0.00 0.00 0.00 27 1018.2
20260503193538 60 237 3.0 10.0 0.00 0.00 0.00 27 1018.2
20260503193039 60 212 1.0 6.0 0.00 0.00 0.00 27 1018.3
20260503192535 59 267 1.0 6.0 0.00 0.00 0.00 28 1018.3
20260503192036 59 149 1.0 9.0 0.00 0.00 0.00 28 1018.5
20260503191540 58 276 3.0 9.0 0.00 0.00 0.00 27 1018.6
20260503191033 58 226 4.0 9.0 0.00 0.00 0.00 30 1018.7
20260503190534 57 215 2.0 7.0 0.00 0.00 0.00 27 1018.6
20260503190039 56 353 2.0 12.0 0.00 0.00 0.00 26 1018.7
20260503185531 56 125 2.0 12.0 0.00 0.00 0.00 29 1018.8
20260503185034 57 323 4.0 12.0 0.00 0.00 0.00 28 1018.7
20260503184533 57 326 5.0 11.0 0.00 0.00 0.00 27 1018.6
20260503184032 57 205 2.0 11.0 0.00 0.00 0.00 28 1018.7
20260503183535 56 203 1.0 7.0 0.00 0.00 0.00 29 1018.8
20260503183032 55 86 4.0 10.0 0.00 0.00 0.00 27 1019.0
20260503182531 56 338 6.0 10.0 0.00 0.00 0.00 26 1019.1
20260503182031 55 283 2.0 10.0 0.00 0.00 0.00 26 1019.1
20260503181531 55 305 4.0 10.0 0.00 0.00 0.00 25 1019.2
20260503181030 57 344 3.0 8.0 0.00 0.00 0.00 26 1019.1
20260503180531 57 335 2.0 7.0 0.00 0.00 0.00 24 1019.2
20260503180034 57 330 4.0 6.0 0.00 0.00 0.00 25 1019.2
20260503175529 56 203 0.0 6.0 0.00 0.00 0.00 27 1019.1
20260503175027 55 192 1.0 12.0 0.00 0.00 0.00 27 1019.3
20260503174526 54 224 4.0 12.0 0.00 0.00 0.00 27 1019.5
20260503174030 54 203 2.0 11.0 0.00 0.00 0.00 26 1019.5
20260503173526 53 319 1.0 9.0 0.00 0.00 0.00 29 1019.5
20260503173026 53 65 4.0 10.0 0.00 0.00 0.00 25 1019.6
20260503172525 54 353 4.0 9.0 0.00 0.00 0.00 25 1019.8
20260503172025 54 349 2.0 11.0 0.00 0.00 0.00 26 1019.7
20260503171523 53 224 4.0 11.0 0.00 0.00 0.00 27 1019.9
20260503171022 53 264 2.0 8.0 0.00 0.00 0.00 27 1020.0
20260503170523 52 239 3.0 13.0 0.00 0.00 0.00 29 1020.0
20260503151005 47 323 3.0 9.0 0.00 0.00 0.00 35 1020.7
20260503150503 46 300 3.0 12.0 0.00 0.00 0.00 36 1020.8
20260503131043 41 152 5.0 12.0 0.00 0.00 0.00 54 1020.1
20260503130541 40 289 3.0 10.0 0.00 0.00 0.00 56 1020.2
20260503110523 36 293 2.0 6.0 0.00 0.00 0.00 68 1018.7
20260503090510 36 13 3.0 8.0 0.00 0.00 0.00 76 1017.5
20260503081505 36 330 2.0 7.0 0.00 0.00 0.00 75 1017.2
20260503081100 36 318 2.0 7.0 0.00 0.00 0.00 75 1017.1
20260503080602 36 315 2.0 7.0 0.00 0.00 0.00 76 1017.0
20260503072554 36 326 0.0 2.0 0.00 0.00 0.00 78 1016.8
20260503072054 36 324 1.0 3.0 0.00 0.00 0.00 79 1016.8
20260503071553 35 353 1.0 3.0 0.00 0.00 0.00 79 1016.7
20260503071052 35 319 0.0 3.0 0.00 0.00 0.00 79 1016.6
20260503070555 35 338 0.0 2.0 0.00 0.00 0.00 80 1016.4
20260503060110 35 229 0.0 1.0 0.00 0.00 0.00 82 1016.5
20260503055045 35 157 0.0 1.0 0.00 0.00 0.00 82 1016.3
20260503054559 35 192 0.0 1.0 0.00 0.00 0.00 81 1016.3
20260503054045 35 220 0.0 2.0 0.00 0.00 0.00 80 1016.2
20260503053544 35 328 0.0 2.0 0.00 0.00 0.00 80 1016.2
20260503053045 35 210 0.0 1.0 0.00 0.00 0.00 81 1016.2
20260503052546 35 210 0.0 1.0 0.00 0.00 0.00 81 1016.1
20260503052045 35 210 0.0 1.0 0.00 0.00 0.00 81 1016.2
20260503051541 35 352 0.0 1.0 0.00 0.00 0.00 79 1016.1
20260503051042 36 352 0.0 1.0 0.00 0.00 0.00 78 1016.2
20260503050540 36 352 0.0 2.0 0.00 0.00 0.00 77 1016.1
20260503050039 36 353 0.0 2.0 0.00 0.00 0.00 78 1016.1
20260503045538 36 202 0.0 0.0 0.00 0.00 0.00 76 1016.0
20260503045037 36 202 0.0 0.0 0.00 0.00 0.00 75 1016.0
20260503044536 36 202 0.0 0.0 0.00 0.00 0.00 75 1016.0
20260503044036 37 202 0.0 0.0 0.00 0.00 0.00 75 1015.9
20260503043536 37 202 0.0 1.0 0.00 0.00 0.00 74 1015.9
20260503043036 37 202 0.0 1.0 0.00 0.00 0.00 73 1015.9
20260503042534 37 233 0.0 1.0 0.00 0.00 0.00 72 1016.0
20260503042031 38 233 0.0 1.0 0.00 0.00 0.00 71 1016.0
20260503041530 38 233 0.0 1.0 0.00 0.00 0.00 70 1015.9
20260503041033 39 233 0.0 1.0 0.00 0.00 0.00 69 1016.0
20260503040529 39 233 0.0 2.0 0.00 0.00 0.00 69 1015.8
20260503040034 39 254 0.0 2.0 0.00 0.00 0.00 68 1015.8
20260503035525 39 12 0.0 1.0 0.00 0.00 0.00 67 1015.8
20260503035024 40 12 0.0 1.0 0.00 0.00 0.00 66 1015.8
20260503034523 40 12 0.0 2.0 0.00 0.00 0.00 65 1015.7
20260503034022 40 338 0.0 3.0 0.00 0.00 0.00 65 1015.7
20260503033522 40 336 0.0 4.0 0.00 0.00 0.00 65 1015.6
20260503033028 40 8 1.0 6.0 0.00 0.00 0.00 65 1015.7
20260503032522 40 335 3.0 6.0 0.00 0.00 0.00 65 1015.6
20260503032021 40 297 1.0 7.0 0.00 0.00 0.00 65 1015.5
20260503031520 41 337 2.0 7.0 0.00 0.00 0.00 64 1015.5
20260503031019 41 1 1.0 4.0 0.00 0.00 0.00 63 1015.4
20260503030517 41 326 1.0 4.0 0.00 0.00 0.00 63 1015.4
20260503030016 41 326 1.0 7.0 0.00 0.00 0.00 62 1015.2
20260503025617 41 346 3.0 7.0 0.00 0.00 0.00 62 1015.2
20260503025016 42 315 3.0 9.0 0.00 0.00 0.00 61 1015.1
20260503024514 42 344 3.0 9.0 0.00 0.00 0.00 61 1015.0
20260503024014 42 308 4.0 9.0 0.00 0.00 0.00 61 1015.0
20260503023513 42 25 5.0 9.0 0.00 0.00 0.00 61 1014.9
20260503023012 42 27 4.0 9.0 0.00 0.00 0.00 61 1014.9
20260503022512 42 342 2.0 6.0 0.00 0.00 0.00 61 1014.9
20260503022012 42 352 2.0 8.0 0.00 0.00 0.00 61 1014.9
20260503021511 42 330 4.0 9.0 0.00 0.00 0.00 60 1015.0
20260503021011 42 328 2.0 6.0 0.00 0.00 0.00 60 1014.9
20260503020510 42 333 2.0 6.0 0.00 0.00 0.00 60 1014.9
20260503020009 42 293 1.0 8.0 0.00 0.00 0.00 59 1014.9
20260503015508 42 333 3.0 8.0 0.00 0.00 0.00 59 1014.8
20260503015006 43 356 2.0 7.0 0.00 0.00 0.00 59 1014.8
20260503014508 43 314 2.0 10.0 0.00 0.00 0.00 58 1014.7
20260503014007 43 299 4.0 10.0 0.00 0.00 0.00 58 1014.6
20260503013508 43 329 3.0 7.0 0.00 0.00 0.00 58 1014.6
20260503013104 43 338 2.0 7.0 0.00 0.00 0.00 58 1014.6
20260503012504 43 334 3.0 7.0 0.00 0.00 0.00 58 1014.5
20260503012005 43 13 3.0 8.0 0.00 0.00 0.00 58 1014.5
20260503011503 43 338 4.0 8.0 0.00 0.00 0.00 58 1014.4
20260503011002 43 331 3.0 6.0 0.00 0.00 0.00 58 1014.3
20260503010501 43 347 3.0 8.0 0.00 0.00 0.00 58 1014.3
20260503010001 43 314 3.0 9.0 0.00 0.00 0.00 58 1014.2
20260503005600 44 314 4.0 9.0 0.00 0.00 0.00 58 1014.1
20260503005100 44 341 2.0 8.0 0.00 0.00 0.00 57 1014.0